Regional Weather Roundup
Issued by NWS Charleston, SC

Current Version | Previous Version | Graphics & Text | Print | Product List | Glossary On
Versions: 1 2 3 4 5 6 7 8 9 10 11 12 13 14 15 16 17 18 19 20 21 22 23 24 25 26 27 28 29 30 31 32 33 34 35 36 37 38 39 40 41 42 43 44 45 46 47 48 49 50
000
ASUS42 KCHS 300027
RWRCHS

REGIONAL WEATHER ROUNDUP
NATIONAL WEATHER SERVICE CHARLESTON SC
800 PM EDT WED MAR 29 2017

NOTE: "FAIR" INDICATES FEW OR NO CLOUDS BELOW 12,000 FEET WITH NO
SIGNIFICANT WEATHER AND/OR OBSTRUCTIONS TO VISIBILITY.

NOT ALL STATIONS ARE QUALITY CONTROLLED. USE DATA WITH CAUTION...
ESPECIALLY DEWPOINT OBSERVATIONS.

SCZ027-030-031-034>040-042>050-300100-
...SOUTHEAST SOUTH CAROLINA...

CITY           SKY/WX    TMP DP  RH WIND       PRES   REMARKS
N CHARLESTON   MOCLDY    68  59  73 E12       30.03R
6HR MIN TEMP:  68; 6HR MAX TEMP:  85;

WATERFRONT PRK   N/A     66  63  90 E10       30.01R
JOHNS ISLAND   FAIR      66  64  94 NE6       30.04R
PINOPOLIS        N/A    N/A N/A N/A VRB3      29.94R
MONCKS CORNER  FAIR      68  57  68 SE8       30.03R
SUMMERVILLE    FAIR      72  57  60 SE5       30.03R
BEAUFORT MCAS  PTCLDY    73  64  73 SE3       30.00R
6HR MIN TEMP:  73; 6HR MAX TEMP:  85;

BEAUFORT ARPT  FAIR      68  61  77 E5        30.01S
HILTON HEAD IS CLOUDY    66  63  88 VRB3      30.02R
WALTERBORO     CLOUDY    72  57  60 SE5       30.01S
ALLENDALE      FAIR      75  55  50 CALM      29.98S

...SOUTHERN MIDLANDS AND PEE DEE...

CITY           SKY/WX    TMP DP  RH WIND       PRES   REMARKS
GEORGETOWN     MOCLDY    61  59  94 E6        30.08R
KINGSTREE      FAIR      66  55  68 E12G17    30.04R
ORANGEBURG     CLEAR     76  51  41 CALM      30.00R
6HR MIN TEMP:  76; 6HR MAX TEMP:  85;

BARNWELL       FAIR      75  55  50 CALM      29.99S
AIKEN          FAIR      72  52  49 CALM      30.03S
MANNING        FAIR      72  55  56 SE5       30.02R
COLUMBIA       PTCLDY    79  50  36 N3        29.99S
6HR MIN TEMP:  79; 6HR MAX TEMP:  84;

SUMTER         CLEAR     74  52  46 NE3       29.99R
6HR MIN TEMP:  74; 6HR MAX TEMP:  83;

FLORENCE       CLEAR     72  54  53 E6        30.02S
6HR MIN TEMP:  72; 6HR MAX TEMP:  82;

MYRTLE BEACH   PTCLDY    63  57  82 E15       30.07R
N MYRTLE BEACH CLEAR     62  57  83 E12       30.06R
6HR MIN TEMP:  62; 6HR MAX TEMP:  71;


$$

GAZ063-065-086>088-099>101-113>116-118-119-134>141-150-300100-
...SOUTHEAST GEORGIA...

CITY           SKY/WX    TMP DP  RH WIND       PRES   REMARKS
SAVANNAH ARPT  MOCLDY    75  54  47 SE8       30.00R
6HR MIN TEMP:  75; 6HR MAX TEMP:  85;

HUNTER AAF     CLEAR     71  63  74 CALM      29.98R
6HR MIN TEMP:  71; 6HR MAX TEMP:  83;

FORT STEWART   CLEAR     74  59  60 SE7       29.98R
6HR MIN TEMP:  73; 6HR MAX TEMP:  88;

STATESBORO     CLEAR     72  61  68 CALM      29.99R
SYLVANIA       PTCLDY   N/A N/A N/A CALM      30.00S
CLAXTON        FAIR     N/A N/A N/A CALM      29.99R

...CSRA...CENTRAL AND FAR SOUTHEAST GEORGIA...

CITY           SKY/WX    TMP DP  RH WIND       PRES   REMARKS
THOMSON        CLEAR     74  55  50 SE5       30.04R
AUGUSTA-BUSH   CLEAR     76  57  51 CALM      29.97S
6HR MIN TEMP:  73; 6HR MAX TEMP:  88;

AUGUSTA-DANIEL CLEAR     80  51  36 N5        29.99S
SWAINSBORO     FAIR      73  57  56 CALM      29.99S
VIDALIA        CLEAR     77  61  57 CALM      29.98S
EASTMAN        FAIR      76  52  42 CALM      30.00R
HAZLEHURST     FAIR      72  72 100 CALM      29.97S
ALMA           CLOUDY    78  66  66 E5        29.97S
6HR MIN TEMP:  78; 6HR MAX TEMP:  87;

WAYCROSS       CLOUDY    74  71  91 CALM      29.99R
JESUP          CLOUDY    77  63  61 SE6       29.99S
BAXLEY         CLOUDY    79  68  69 CALM      29.98R
BRUNSWICK      MOCLDY    72  66  83 E5        30.01S
SAINT SIMONS   CLOUDY    69  65  86 E8        30.00R
6HR MIN TEMP:  69; 6HR MAX TEMP:  77;


$$

SCZ027-028-034-036>038-045-046-048>050-GAZ119-141-300100-
...LAKE AND SUPPLEMENTAL COASTAL OBSERVATIONS...

STATION/POSITION TIME  TEMP    WIND        PRES    WAVE   SWELL
                       AIR SEA DIR/SP/G            HT/PER HT/PER/DIR
                 (UTC) (F)     (DEG/KT/KT) (MB)    (FT/S) (FT/S/D)
WINYAH BAY       2330   63      70/  9     1017.0S
LAKE MURRAY      2350   74        CALM     1015.2R
ACE BASIN NERRS  2330   69     120/  1     1016.0S
FORT PULASKI     0000   67 67  160/  3/  5 1016.3
SAPELO ISLAND    0000   68     120/  2     1016.0

$$

ANZ835-935-AMZ111-154-330-350-352-354-370-450-454-472-300100-
...C-MAN AND BUOY OBSERVATIONS...

STATION/POSITION TIME  TEMP    WIND        PRES    WAVE   SWELL
                       AIR SEA DIR/SP/G            HT/PER HT/PER/DIR
                 (UTC) (F)     (DEG/KT/KT) (MB)    (FT/S) (FT/S/D)
BUOY 41004       2350   71 69   80/  8/ 10 1015.9R   4/10   3/100/10
BUOY 41008       2350   66 66  120/  6/  8 1015.9R   3/ 9   3/ 80/ 9
FOLLY BEACH CMAN 0000   64      50/  9/ 11 1017.5R
CAPERS NEARSHORE NOT AVBL
FRIPP NEARSHORE  0008   64 63   90/  6/  6 1016.0R


STATION/POSITION TIME  TEMP    WIND        PRES    WAVE   SWELL
                       AIR SEA DIR/SP/G            HT/PER HT/PER/DIR
                 (UTC) (F)     (DEG/KT/KT) (MB)    (FT/S) (FT/S/D)
5E ST. MARYS GA  0000      69                N/A     3/10   2/120/11
FRYING PAN BUOY  0010   68 74   60/ 17/ 23 1017.6
BUOY 41025       2350   58 74   30/ 19/ 25 1019.0R   7/10   3/120/10
CAPE LOOKOUT NC  0000   60      50/ 17/ 20 1018.8R
BUOY 41002       2350   71 72   40/ 16/ 17 1016.1R   6/11   5/100/11
BUOY 41010       NOT AVBL
ST AUGUSTINE FL  0000   71 71  170/  8/  8 1016.6R


$$




USA.gov is the U.S. government's official web portal to all federal, state and local government web resources and services.